Location: Meadowbank Aerodrome
(65.0250°N, 96.0705°W)
Time: 20:36:12
(UTC-05:00)

Cosmos 2221 - Visible Passes

Search period start: 21 October 2014 00:00
Search period end: 31 October 2014 00:00
Orbit: 598 x 621 km, 82.5° (Epoch: 21 October)

Date Brightness Start Highest point End Pass type
(mag) Time Alt. Az. Time Alt. Az. Time Alt. Az.
21 Oct 5.1 01:30:14 10° N 01:32:03 19° NNE 01:32:03 19° NNE visible
21 Oct 4.9 03:07:47 10° NNW 03:09:00 18° NNW 03:09:00 18° NNW visible
21 Oct 5.1 04:45:56 10° NNW 04:45:56 10° NNW 04:45:56 10° NNW visible
21 Oct 4.8 19:06:49 10° WSW 19:10:23 24° NW 19:13:58 10° N visible
21 Oct 5.5 20:48:37 10° NW 20:49:44 11° NNW 20:50:50 10° N visible
22 Oct 5.4 00:07:29 10° N 00:09:15 13° NNE 00:09:15 13° NNE visible
22 Oct 5.1 01:44:40 10° N 01:46:11 19° N 01:46:11 19° N visible
22 Oct 5.0 03:22:19 10° NNW 03:23:08 15° NNW 03:23:08 15° NNW visible
22 Oct 5.0 19:22:00 10° W 19:25:10 19° NW 19:28:23 10° N visible
23 Oct 5.3 00:21:47 10° N 00:23:24 14° NNE 00:23:24 14° NNE visible
23 Oct 5.2 01:59:07 10° N 02:00:21 18° N 02:00:21 18° N visible
23 Oct 5.2 03:36:52 10° NNW 03:37:17 13° NNW 03:37:17 13° NNW visible
23 Oct 5.2 19:37:17 10° WNW 19:40:01 16° NW 19:42:46 10° N visible
24 Oct 5.3 00:36:09 10° N 00:37:34 15° NNE 00:37:34 15° NNE visible
24 Oct 5.2 02:13:35 10° NNW 02:14:31 16° N 02:14:31 16° N visible
24 Oct 5.2 19:52:42 10° WNW 19:54:53 13° NNW 19:57:05 10° N visible
24 Oct 5.4 23:13:47 10° N 23:14:39 11° NNE 23:14:48 11° NNE visible
25 Oct 5.4 00:50:32 10° N 00:51:45 16° N 00:51:45 16° N visible
25 Oct 5.3 02:28:03 10° NNW 02:28:41 14° NNW 02:28:41 14° NNW visible
25 Oct 4.5 18:26:49 10° WSW 18:30:32 26° NW 18:34:16 10° N visible
25 Oct 5.3 20:08:17 10° NW 20:09:48 12° NNW 20:11:19 10° N visible
25 Oct 5.4 23:27:49 10° N 23:28:59 12° NNE 23:28:59 12° NNE visible
26 Oct 5.4 01:04:56 10° N 01:05:56 15° N 01:05:56 15° N visible
26 Oct 5.4 02:42:33 10° NNW 02:42:52 12° NNW 02:42:52 12° NNW visible
26 Oct 4.8 18:41:55 10° W 18:45:17 21° NW 18:48:40 10° N visible
26 Oct 5.5 20:24:27 10° NNW 20:24:44 10° NNW 20:25:01 10° NNW visible
26 Oct 5.4 23:42:04 10° N 23:43:10 13° NNE 23:43:10 13° NNE visible
27 Oct 5.5 01:19:21 10° N 01:20:07 14° N 01:20:07 14° N visible
27 Oct 5.5 02:57:04 10° NNW 02:57:04 10° NNW 02:57:04 10° NNW visible
27 Oct 5.0 18:57:07 10° W 19:00:04 17° NW 19:03:02 10° N visible
27 Oct 5.4 23:56:23 10° N 23:57:22 13° N 23:57:22 13° N visible
28 Oct 5.5 01:33:47 10° NNW 01:34:19 13° N 01:34:19 13° N visible
28 Oct 5.1 19:12:27 10° WNW 19:14:54 15° NNW 19:17:21 10° N visible
29 Oct 5.5 00:10:44 10° N 00:11:34 14° N 00:11:34 14° N visible
29 Oct 5.6 01:48:13 10° NNW 01:48:31 12° NNW 01:48:31 12° NNW visible
29 Oct 5.2 19:27:55 10° NW 19:29:46 12° NNW 19:31:37 10° N visible
29 Oct 5.4 22:48:04 10° N 22:48:49 11° NNE 22:48:49 11° NNE visible
30 Oct 5.6 00:25:06 10° N 00:25:46 13° N 00:25:46 13° N visible
30 Oct 5.7 02:02:40 10° NNW 02:02:43 10° NNW 02:02:43 10° NNW visible
30 Oct 4.6 18:01:45 10° W 18:05:17 23° NW 18:08:50 10° N visible
30 Oct 5.3 19:43:38 10° NW 19:44:39 11° NNW 19:45:41 10° N visible
30 Oct 5.4 23:02:15 10° N 23:03:01 12° N 23:03:01 12° N visible
